QPF
0.03 0.03 0.03 0.05 0.05 0.06 0.09 0.13 0.16 0.17 0.19 0.21 0.17 0.13 0.12 0.11 0.08 0.06 0.05 0.05 0.06 0.05 0.08 0.10 0.10 0.11 0.11 0.12 0.11 0.11 0.14 0.18 0.19 0.18 0.16 0.11 0.09 0.09 0.08 0.06 0.04 0.03 0.02
0.07 0.08 0.08 0.10 0.09 0.10 0.14 0.20 0.22 0.23 0.22 0.22 0.13 0.11 0.11 0.14 0.13 0.09 0.05 0.06 0.05 0.04 0.05 0.07 0.09 0.10 0.12 0.12 0.11 0.11 0.12 0.14 0.14 0.14 0.15 0.13 0.09 0.08 0.09 0.11 0.08 0.05 0.03
0.13 0.14 0.15 0.14 0.13 0.17 0.19 0.21 0.22 0.22 0.19 0.15 0.13 0.14 0.14 0.12 0.09 0.08 0.06 0.06 0.05 0.03 0.03 0.04 0.06 0.07 0.09 0.11 0.12 0.13 0.12 0.13 0.12 0.12 0.13 0.11 0.09 0.07 0.07 0.10 0.11 0.10 0.07
0.20 0.21 0.19 0.17 0.18 0.19 0.18 0.18 0.18 0.18 0.17 0.16 0.16 0.14 0.12 0.10 0.07 0.06 0.04 0.03 0.03 0.02 0.02 0.03 0.04 0.04 0.06 0.08 0.10 0.14 0.14 0.12 0.11 0.10 0.11 0.11 0.08 0.06 0.05 0.06 0.08 0.09 0.09
0.25 0.28 0.26 0.23 0.22 0.19 0.16 0.13 0.14 0.13 0.13 0.13 0.12 0.11 0.07 0.07 0.05 0.03 0.01 0.01 0.01 0.01 0.01 0.01 0.02 0.02 0.03 0.05 0.08 0.12 0.15 0.12 0.11 0.11 0.11 0.11 0.08 0.06 0.03 0.03 0.04 0.05 0.05
0.36 0.39 0.36 0.31 0.25 0.20 0.17 0.14 0.12 0.09 0.08 0.07 0.04 0.03 0.03 0.02 0.01 0.01 0.00 0.00 0.00 0.00 0.00 0.00 0.01 0.01 0.01 0.03 0.05 0.08 0.11 0.12 0.10 0.09 0.10 0.10 0.09 0.06 0.04 0.03 0.02 0.03 0.03
0.43 0.44 0.40 0.31 0.25 0.20 0.17 0.13 0.10 0.07 0.05 0.04 0.03 0.02 0.00 0.00 0.00 0.00 0.00 0.00 0.00 0.00 0.00 0.00 0.00 0.01 0.01 0.01 0.02 0.03 0.07 0.08 0.08 0.07 0.07 0.07 0.07 0.05 0.04 0.03 0.02 0.02 0.02
0.37 0.38 0.37 0.31 0.22 0.18 0.15 0.12 0.10 0.06 0.04 0.03 0.02 0.01 0.00 0.00 0.00 0.00 0.00 0.00 0.00 0.00 0.00 0.00 0.00 0.01 0.01 0.02 0.02 0.01 0.04 0.06 0.08 0.08 0.06 0.06 0.06 0.05 0.04 0.03 0.02 0.02 0.02
0.23 0.24 0.25 0.26 0.21 0.16 0.12 0.10 0.09 0.07 0.04 0.02 0.01 0.00 0.00 0.00 0.00 0.00 0.00 0.00 0.00 0.00 0.00 0.00 0.00 0.01 0.01 0.02 0.02 0.02 0.02 0.03 0.06 0.08 0.08 0.05 0.05 0.05 0.05 0.04 0.03 0.02 0.02
0.14 0.16 0.16 0.16 0.15 0.12 0.09 0.06 0.05 0.05 0.05 0.02 0.01 0.00 0.00 0.00 0.00 0.00 0.00 0.00 0.00 0.00 0.00 0.00 0.00 0.00 0.00 0.01 0.02 0.02 0.01 0.01 0.03 0.06 0.09 0.08 0.06 0.04 0.04 0.04 0.05 0.04 0.03
0.10 0.11 0.13 0.12 0.12 0.10 0.08 0.07 0.05 0.04 0.04 0.02 0.01 0.01 0.00 0.00 0.00 0.00 0.00 0.00 0.00 0.00 0.00 0.00 0.00 0.00 0.01 0.01 0.02 0.02 0.01 0.01 0.02 0.03 0.05 0.07 0.06 0.04 0.04 0.04 0.05 0.05 0.05
0.06 0.08 0.09 0.11 0.12 0.12 0.11 0.09 0.07 0.06 0.06 0.04 0.03 0.01 0.01 0.00 0.00 0.00 0.00 0.00 0.00 0.00 0.00 0.00 0.00 0.01 0.00 0.01 0.01 0.01 0.01 0.01 0.02 0.03 0.03 0.04 0.05 0.05 0.05 0.05 0.06 0.09 0.10
0.02 0.04 0.06 0.07 0.09 0.11 0.13 0.11 0.10 0.09 0.08 0.07 0.05 0.04 0.02 0.01 0.00 0.00 0.00 0.00 0.00 0.00 0.00 0.00 0.01 0.01 0.00 0.00 0.01 0.00 0.01 0.01 0.02 0.03 0.03 0.04 0.06 0.07 0.08 0.08 0.10 0.13 0.15
0.01 0.01 0.03 0.04 0.07 0.08 0.10 0.11 0.12 0.12 0.12 0.10 0.09 0.07 0.06 0.03 0.01 0.00 0.01 0.01 0.01 0.00 0.00 0.01 0.01 0.01 0.01 0.01 0.01 0.01 0.01 0.01 0.01 0.02 0.02 0.04 0.05 0.08 0.10 0.09 0.09 0.09 0.12
0.00 0.00 0.01 0.02 0.03 0.05 0.07 0.09 0.11 0.14 0.15 0.14 0.12 0.12 0.10 0.07 0.05 0.03 0.02 0.02 0.02 0.01 0.01 0.02 0.02 0.01 0.01 0.01 0.01 0.01 0.01 0.01 0.01 0.02 0.03 0.03 0.05 0.06 0.07 0.07 0.09 0.09 0.10
0.00 0.00 0.00 0.01 0.01 0.02 0.03 0.05 0.07 0.11 0.15 0.17 0.18 0.17 0.15 0.12 0.11 0.07 0.05 0.04 0.03 0.02 0.02 0.02 0.02 0.02 0.01 0.01 0.01 0.01 0.01 0.01 0.02 0.02 0.02 0.03 0.04 0.04 0.05 0.07 0.08 0.08 0.08
0.00 0.00 0.00 0.00 0.00 0.01 0.01 0.02 0.05 0.08 0.12 0.16 0.19 0.20 0.20 0.19 0.18 0.12 0.09 0.06 0.05 0.04 0.04 0.03 0.03 0.03 0.02 0.01 0.01 0.01 0.01 0.01 0.01 0.01 0.02 0.02 0.02 0.02 0.03 0.04 0.05 0.06 0.06
0.00 0.00 0.00 0.00 0.00 0.00 0.00 0.01 0.02 0.04 0.07 0.12 0.18 0.21 0.22 0.23 0.23 0.21 0.16 0.10 0.07 0.06 0.05 0.06 0.04 0.04 0.03 0.02 0.01 0.01 0.01 0.00 0.00 0.01 0.01 0.01 0.01 0.01 0.02 0.02 0.02 0.03 0.03
0.00 0.00 0.00 0.00 0.00 0.00 0.00 0.00 0.00 0.01 0.03 0.08 0.14 0.19 0.25 0.28 0.25 0.24 0.21 0.16 0.12 0.09 0.08 0.07 0.06 0.06 0.04 0.02 0.02 0.01 0.01 0.01 0.00 0.00 0.01 0.01 0.01 0.01 0.01 0.01 0.01 0.02 0.02
0.01 0.01 0.01 0.00 0.00 0.00 0.00 0.00 0.00 0.00 0.01 0.03 0.07 0.13 0.19 0.25 0.28 0.27 0.25 0.21 0.18 0.14 0.11 0.09 0.09 0.07 0.04 0.03 0.02 0.02 0.02 0.01 0.00 0.00 0.00 0.00 0.01 0.01 0.01 0.01 0.01 0.01 0.01
0.01 0.01 0.01 0.01 0.01 0.01 0.00 0.00 0.00 0.00 0.00 0.01 0.02 0.07 0.13 0.19 0.24 0.27 0.27 0.25 0.22 0.17 0.13 0.10 0.09 0.08 0.05 0.03 0.03 0.02 0.01 0.01 0.01 0.00 0.00 0.00 0.00 0.00 0.00 0.01 0.01 0.00 0.00
0.02 0.02 0.03 0.03 0.02 0.01 0.00 0.00 0.01 0.01 0.01 0.01 0.01 0.02 0.06 0.14 0.19 0.24 0.26 0.27 0.25 0.20 0.15 0.11 0.09 0.08 0.05 0.03 0.02 0.01 0.01 0.01 0.02 0.01 0.00 0.00 0.00 0.00 0.00 0.00 0.00 0.00 0.00
0.04 0.04 0.05 0.05 0.05 0.04 0.01 0.01 0.00 0.01 0.01 0.01 0.01 0.02 0.02 0.05 0.12 0.18 0.24 0.26 0.24 0.21 0.17 0.15 0.13 0.10 0.08 0.04 0.03 0.02 0.01 0.02 0.02 0.02 0.01 0.01 0.00 0.00 0.00 0.00 0.00 0.00 0.00
0.07 0.08 0.08 0.08 0.08 0.06 0.03 0.01 0.00 0.01 0.02 0.02 0.02 0.01 0.01 0.02 0.05 0.11 0.18 0.23 0.21 0.18 0.15 0.12 0.12 0.15 0.13 0.09 0.06 0.03 0.02 0.02 0.02 0.02 0.01 0.01 0.01 0.00 0.00 0.00 0.00 0.00 0.00
0.09 0.10 0.10 0.10 0.10 0.09 0.05 0.03 0.01 0.02 0.04 0.03 0.03 0.01 0.01 0.01 0.02 0.05 0.11 0.17 0.21 0.19 0.15 0.13 0.12 0.13 0.12 0.10 0.08 0.06 0.04 0.02 0.02 0.02 0.01 0.01 0.01 0.01 0.00 0.00 0.00 0.00 0.00
0.10 0.11 0.11 0.11 0.11 0.11 0.08 0.04 0.03 0.04 0.05 0.05 0.05 0.03 0.01 0.01 0.01 0.02 0.05 0.11 0.15 0.18 0.16 0.11 0.09 0.08 0.08 0.07 0.06 0.05 0.04 0.02 0.02 0.03 0.01 0.01 0.01 0.00 0.00 0.00 0.00 0.00 0.00
MSLP
1012.20 1012.19 1012.18 1012.21 1012.30 1012.44 1012.64 1012.88 1013.12 1013.33 1013.47 1013.53 1013.50 1013.41 1013.28 1013.17 1013.11 1013.14 1013.28 1013.53 1013.86 1014.26 1014.68 1015.09 1015.48 1015.83 1016.15 1016.45 1016.73 1017.02 1017.33 1017.66 1018.01 1018.37 1018.74 1019.11 1019.45 1019.78 1020.09 1020.37 1020.64 1020.89 1021.14
1011.86 1011.79 1011.75 1011.76 1011.83 1011.97 1012.16 1012.40 1012.65 1012.87 1013.03 1013.11 1013.11 1013.04 1012.93 1012.80 1012.71 1012.69 1012.76 1012.93 1013.19 1013.53 1013.91 1014.32 1014.72 1015.10 1015.45 1015.78 1016.09 1016.41 1016.73 1017.06 1017.41 1017.78 1018.17 1018.55 1018.93 1019.30 1019.65 1019.98 1020.28 1020.57 1020.84
1011.56 1011.45 1011.38 1011.38 1011.44 1011.58 1011.79 1012.03 1012.29 1012.52 1012.70 1012.80 1012.82 1012.76 1012.64 1012.49 1012.36 1012.27 1012.26 1012.34 1012.51 1012.78 1013.11 1013.49 1013.88 1014.28 1014.66 1015.03 1015.37 1015.71 1016.05 1016.40 1016.76 1017.14 1017.53 1017.93 1018.34 1018.73 1019.12 1019.48 1019.82 1020.13 1020.44
1011.27 1011.14 1011.07 1011.07 1011.15 1011.30 1011.51 1011.76 1012.02 1012.26 1012.44 1012.55 1012.57 1012.51 1012.38 1012.21 1012.03 1011.88 1011.79 1011.78 1011.87 1012.05 1012.32 1012.65 1013.03 1013.43 1013.83 1014.22 1014.60 1014.96 1015.32 1015.69 1016.06 1016.45 1016.85 1017.27 1017.69 1018.11 1018.51 1018.89 1019.26 1019.60 1019.93
1011.00 1010.87 1010.81 1010.84 1010.94 1011.12 1011.34 1011.58 1011.83 1012.05 1012.22 1012.32 1012.34 1012.27 1012.13 1011.94 1011.72 1011.52 1011.37 1011.28 1011.29 1011.40 1011.60 1011.88 1012.22 1012.60 1013.00 1013.40 1013.79 1014.18 1014.56 1014.94 1015.33 1015.74 1016.15 1016.58 1017.01 1017.44 1017.85 1018.25 1018.63 1018.98 1019.32
1010.75 1010.64 1010.63 1010.70 1010.84 1011.03 1011.25 1011.48 1011.70 1011.89 1012.02 1012.08 1012.07 1011.99 1011.84 1011.64 1011.42 1011.19 1011.00 1010.87 1010.82 1010.86 1011.00 1011.22 1011.51 1011.86 1012.23 1012.62 1013.02 1013.41 1013.80 1014.20 1014.60 1015.02 1015.44 1015.88 1016.31 1016.74 1017.16 1017.56 1017.94 1018.30 1018.64
1010.54 1010.48 1010.52 1010.64 1010.82 1011.03 1011.25 1011.45 1011.62 1011.74 1011.81 1011.82 1011.78 1011.67 1011.52 1011.33 1011.11 1010.89 1010.70 1010.55 1010.47 1010.47 1010.55 1010.71 1010.95 1011.24 1011.58 1011.94 1012.31 1012.69 1013.09 1013.48 1013.89 1014.31 1014.74 1015.18 1015.61 1016.04 1016.45 1016.85 1017.22 1017.58 1017.92
1010.40 1010.40 1010.50 1010.68 1010.89 1011.11 1011.30 1011.46 1011.56 1011.61 1011.60 1011.54 1011.45 1011.32 1011.17 1010.99 1010.81 1010.63 1010.46 1010.33 1010.24 1010.22 1010.26 1010.37 1010.55 1010.78 1011.06 1011.37 1011.71 1012.07 1012.44 1012.83 1013.23 1013.64 1014.07 1014.50 1014.92 1015.34 1015.74 1016.12 1016.49 1016.84 1017.17
1010.34 1010.40 1010.56 1010.78 1011.02 1011.24 1011.40 1011.50 1011.52 1011.48 1011.38 1011.26 1011.11 1010.96 1010.81 1010.66 1010.52 1010.39 1010.27 1010.17 1010.10 1010.08 1010.10 1010.18 1010.30 1010.48 1010.70 1010.96 1011.25 1011.56 1011.90 1012.26 1012.64 1013.03 1013.44 1013.85 1014.26 1014.66 1015.05 1015.42 1015.77 1016.11 1016.45
1010.35 1010.46 1010.66 1010.91 1011.17 1011.37 1011.50 1011.54 1011.48 1011.35 1011.18 1010.98 1010.79 1010.61 1010.46 1010.35 1010.25 1010.17 1010.11 1010.05 1010.02 1010.01 1010.03 1010.08 1010.17 1010.30 1010.48 1010.69 1010.93 1011.20 1011.50 1011.82 1012.17 1012.53 1012.90 1013.28 1013.66 1014.04 1014.41 1014.76 1015.11 1015.44 1015.78
1010.37 1010.51 1010.74 1011.01 1011.26 1011.45 1011.54 1011.53 1011.41 1011.22 1010.98 1010.73 1010.50 1010.31 1010.17 1010.07 1010.01 1009.97 1009.95 1009.94 1009.94 1009.94 1009.97 1010.02 1010.09 1010.21 1010.35 1010.53 1010.74 1010.98 1011.25 1011.53 1011.84 1012.16 1012.49 1012.83 1013.17 1013.52 1013.86 1014.20 1014.53 1014.86 1015.20
1010.35 1010.50 1010.73 1011.00 1011.24 1011.41 1011.47 1011.42 1011.27 1011.05 1010.78 1010.50 1010.26 1010.06 1009.93 1009.84 1009.80 1009.79 1009.79 1009.80 1009.82 1009.84 1009.88 1009.94 1010.03 1010.15 1010.30 1010.48 1010.69 1010.92 1011.17 1011.43 1011.69 1011.97 1012.25 1012.54 1012.83 1013.13 1013.44 1013.76 1014.08 1014.41 1014.74
1010.23 1010.36 1010.58 1010.82 1011.04 1011.19 1011.24 1011.19 1011.04 1010.81 1010.55 1010.29 1010.06 1009.88 1009.75 1009.67 1009.62 1009.61 1009.61 1009.62 1009.64 1009.68 1009.73 1009.81 1009.94 1010.10 1010.29 1010.51 1010.76 1011.01 1011.26 1011.51 1011.74 1011.98 1012.21 1012.44 1012.68 1012.93 1013.20 1013.49 1013.79 1014.11 1014.43
1009.98 1010.07 1010.24 1010.45 1010.63 1010.77 1010.82 1010.79 1010.67 1010.50 1010.29 1010.08 1009.89 1009.74 1009.62 1009.54 1009.49 1009.45 1009.42 1009.41 1009.41 1009.44 1009.51 1009.63 1009.81 1010.03 1010.31 1010.60 1010.92 1011.22 1011.51 1011.77 1011.99 1012.19 1012.37 1012.55 1012.73 1012.93 1013.16 1013.41 1013.68 1013.98 1014.29
1009.58 1009.61 1009.73 1009.88 1010.04 1010.16 1010.23 1010.23 1010.18 1010.08 1009.96 1009.83 1009.71 1009.61 1009.52 1009.45 1009.37 1009.30 1009.22 1009.17 1009.14 1009.16 1009.24 1009.40 1009.64 1009.96 1010.33 1010.73 1011.14 1011.53 1011.87 1012.17 1012.40 1012.58 1012.73 1012.85 1012.98 1013.13 1013.30 1013.51 1013.76 1014.02 1014.30
1009.06 1009.03 1009.08 1009.17 1009.29 1009.40 1009.48 1009.54 1009.56 1009.56 1009.55 1009.53 1009.50 1009.47 1009.42 1009.36 1009.26 1009.15 1009.03 1008.92 1008.85 1008.85 1008.95 1009.14 1009.46 1009.87 1010.35 1010.87 1011.39 1011.88 1012.31 1012.65 1012.91 1013.09 1013.21 1013.30 1013.39 1013.48 1013.61 1013.78 1013.99 1014.22 1014.47
1008.47 1008.37 1008.35 1008.38 1008.45 1008.54 1008.64 1008.75 1008.85 1008.95 1009.05 1009.14 1009.22 1009.27 1009.28 1009.23 1009.14 1009.00 1008.84 1008.68 1008.58 1008.56 1008.66 1008.89 1009.26 1009.76 1010.35 1010.98 1011.62 1012.21 1012.72 1013.13 1013.43 1013.63 1013.75 1013.82 1013.88 1013.94 1014.04 1014.18 1014.35 1014.55 1014.76
1007.86 1007.70 1007.61 1007.58 1007.60 1007.67 1007.77 1007.90 1008.06 1008.25 1008.45 1008.65 1008.82 1008.96 1009.04 1009.04 1008.96 1008.81 1008.63 1008.45 1008.33 1008.29 1008.39 1008.65 1009.07 1009.63 1010.30 1011.03 1011.76 1012.44 1013.04 1013.51 1013.86 1014.09 1014.23 1014.32 1014.37 1014.43 1014.52 1014.65 1014.80 1014.99 1015.17
1007.28 1007.06 1006.91 1006.82 1006.79 1006.81 1006.89 1007.03 1007.23 1007.47 1007.74 1008.03 1008.30 1008.52 1008.67 1008.73 1008.69 1008.57 1008.40 1008.22 1008.08 1008.05 1008.15 1008.42 1008.86 1009.47 1010.19 1010.98 1011.77 1012.53 1013.19 1013.73 1014.13 1014.41 1014.60 1014.71 1014.80 1014.89 1014.99 1015.13 1015.30 1015.48 1015.65
1006.72 1006.46 1006.26 1006.11 1006.02 1006.00 1006.05 1006.17 1006.36 1006.63 1006.95 1007.29 1007.64 1007.94 1008.17 1008.30 1008.32 1008.25 1008.12 1007.96 1007.84 1007.80 1007.91 1008.18 1008.62 1009.24 1009.97 1010.79 1011.62 1012.41 1013.12 1013.72 1014.18 1014.53 1014.78 1014.96 1015.11 1015.25 1015.41 1015.59 1015.79 1016.00 1016.18
1006.16 1005.88 1005.64 1005.45 1005.31 1005.23 1005.23 1005.31 1005.48 1005.74 1006.08 1006.46 1006.85 1007.22 1007.53 1007.74 1007.84 1007.84 1007.76 1007.65 1007.56 1007.54 1007.65 1007.91 1008.34 1008.93 1009.65 1010.46 1011.29 1012.10 1012.84 1013.48 1014.01 1014.42 1014.76 1015.03 1015.26 1015.50 1015.74 1015.99 1016.25 1016.50 1016.73
1005.56 1005.27 1005.01 1004.79 1004.61 1004.48 1004.43 1004.46 1004.60 1004.84 1005.17 1005.56 1005.99 1006.42 1006.79 1007.08 1007.27 1007.35 1007.35 1007.29 1007.24 1007.24 1007.35 1007.59 1007.99 1008.55 1009.23 1010.00 1010.81 1011.61 1012.37 1013.05 1013.63 1014.13 1014.55 1014.93 1015.27 1015.61 1015.95 1016.29 1016.63 1016.95 1017.23
1004.88 1004.60 1004.33 1004.10 1003.89 1003.74 1003.65 1003.64 1003.74 1003.95 1004.27 1004.67 1005.12 1005.58 1006.01 1006.37 1006.64 1006.80 1006.87 1006.88 1006.87 1006.90 1007.00 1007.23 1007.59 1008.10 1008.73 1009.45 1010.23 1011.02 1011.78 1012.48 1013.12 1013.69 1014.21 1014.69 1015.15 1015.59 1016.04 1016.48 1016.90 1017.29 1017.63
1004.11 1003.83 1003.59 1003.36 1003.16 1003.00 1002.89 1002.87 1002.95 1003.14 1003.45 1003.84 1004.30 1004.79 1005.26 1005.67 1006.00 1006.22 1006.35 1006.42 1006.45 1006.51 1006.62 1006.82 1007.16 1007.62 1008.21 1008.88 1009.62 1010.39 1011.15 1011.88 1012.57 1013.20 1013.80 1014.37 1014.92 1015.47 1016.00 1016.53 1017.03 1017.48 1017.88
1003.25 1003.00 1002.79 1002.59 1002.42 1002.28 1002.19 1002.18 1002.26 1002.45 1002.76 1003.15 1003.61 1004.11 1004.59 1005.03 1005.39 1005.66 1005.83 1005.94 1006.01 1006.08 1006.20 1006.40 1006.72 1007.16 1007.71 1008.36 1009.07 1009.82 1010.58 1011.33 1012.04 1012.72 1013.38 1014.01 1014.63 1015.24 1015.84 1016.42 1016.98 1017.48 1017.93
1002.36 1002.15 1001.97 1001.83 1001.71 1001.62 1001.58 1001.61 1001.72 1001.93 1002.24 1002.63 1003.08 1003.57 1004.05 1004.48 1004.85 1005.12 1005.32 1005.44 1005.54 1005.63 1005.77 1005.98 1006.30 1006.74 1007.29 1007.92 1008.63 1009.38 1010.14 1010.89 1011.61 1012.31 1012.99 1013.65 1014.29 1014.93 1015.55 1016.16 1016.74 1017.28 1017.75
Thickness
5748 5748 5746 5744 5744 5744 5744 5741 5742 5744 5744 5744 5743 5745 5745 5746 5747 5748 5749 5745 5742 5739 5738 5737 5736 5736 5735 5734 5733 5732 5730 5728 5726 5725 5724 5723 5722 5722 5722 5721 5721 5721 5720
5742 5741 5740 5739 5739 5739 5739 5738 5739 5738 5739 5740 5741 5743 5743 5744 5744 5744 5745 5746 5743 5741 5739 5738 5737 5736 5736 5734 5733 5732 5731 5729 5727 5726 5724 5723 5722 5722 5722 5721 5721 5721 5720
5735 5734 5733 5733 5734 5733 5732 5731 5732 5733 5735 5737 5738 5740 5740 5740 5742 5742 5744 5745 5745 5742 5741 5739 5738 5737 5736 5735 5734 5733 5731 5730 5728 5727 5725 5724 5723 5722 5722 5721 5721 5721 5720
5730 5728 5727 5728 5728 5726 5726 5727 5729 5730 5731 5733 5734 5736 5738 5738 5739 5740 5742 5743 5743 5745 5744 5741 5739 5738 5737 5736 5735 5733 5732 5731 5729 5728 5726 5724 5723 5722 5722 5721 5721 5721 5721
5725 5724 5723 5721 5721 5721 5721 5724 5727 5726 5727 5729 5731 5732 5734 5735 5737 5740 5742 5743 5743 5743 5744 5744 5740 5739 5738 5736 5735 5734 5733 5731 5730 5728 5726 5725 5723 5722 5722 5721 5720 5720 5720
5720 5719 5717 5715 5715 5714 5715 5717 5718 5720 5722 5725 5728 5732 5732 5735 5736 5738 5739 5741 5742 5743 5744 5745 5743 5742 5740 5738 5736 5735 5734 5732 5730 5729 5727 5725 5723 5722 5721 5721 5720 5720 5720
5713 5712 5711 5711 5710 5709 5710 5712 5713 5715 5716 5720 5720 5722 5728 5732 5734 5734 5736 5739 5741 5742 5741 5742 5742 5744 5745 5740 5738 5736 5734 5733 5731 5730 5728 5726 5724 5722 5721 5720 5720 5719 5719
5705 5706 5704 5703 5704 5703 5704 5705 5706 5709 5712 5715 5714 5715 5718 5724 5726 5732 5733 5733 5737 5740 5741 5741 5741 5740 5742 5744 5743 5738 5735 5733 5731 5729 5727 5726 5723 5721 5720 5720 5719 5718 5718
5697 5696 5696 5696 5696 5696 5697 5699 5700 5700 5703 5709 5712 5711 5710 5714 5724 5727 5728 5730 5731 5734 5737 5740 5739 5740 5740 5741 5742 5738 5736 5733 5731 5729 5727 5725 5723 5721 5720 5719 5718 5717 5717
5685 5686 5686 5687 5689 5690 5691 5693 5696 5697 5696 5700 5704 5705 5709 5714 5712 5717 5721 5726 5726 5727 5732 5736 5738 5739 5738 5739 5738 5736 5733 5731 5729 5727 5726 5724 5722 5720 5719 5718 5717 5717 5716
5674 5675 5676 5677 5679 5681 5683 5685 5687 5689 5692 5694 5699 5701 5702 5703 5705 5707 5713 5718 5722 5726 5729 5731 5734 5735 5736 5735 5735 5733 5730 5728 5727 5725 5724 5722 5720 5718 5717 5716 5715 5715 5715
5663 5664 5665 5666 5668 5671 5673 5676 5678 5681 5684 5687 5691 5696 5698 5699 5701 5704 5706 5709 5714 5721 5725 5728 5730 5731 5731 5731 5731 5727 5726 5725 5723 5722 5721 5720 5718 5716 5715 5714 5713 5713 5713
5652 5652 5653 5654 5656 5658 5661 5664 5667 5672 5675 5677 5681 5686 5692 5697 5702 5703 5704 5707 5709 5715 5717 5722 5725 5726 5726 5725 5725 5722 5721 5720 5720 5718 5717 5716 5715 5714 5712 5711 5711 5711 5711
5641 5640 5640 5641 5643 5645 5648 5651 5655 5660 5664 5668 5673 5677 5682 5689 5695 5698 5700 5701 5701 5707 5711 5715 5719 5720 5719 5719 5717 5716 5718 5715 5714 5714 5712 5711 5711 5710 5708 5707 5707 5708 5708
5628 5627 5627 5628 5630 5632 5635 5638 5642 5646 5651 5656 5662 5667 5672 5680 5685 5691 5695 5698 5697 5699 5703 5706 5711 5713 5713 5712 5710 5712 5712 5708 5708 5707 5707 5706 5705 5704 5703 5702 5702 5702 5703
5613 5613 5614 5615 5617 5619 5622 5625 5629 5633 5637 5643 5648 5655 5661 5669 5675 5681 5686 5691 5694 5696 5699 5705 5706 5708 5707 5707 5704 5705 5703 5701 5700 5700 5699 5698 5698 5697 5697 5696 5696 5696 5696
5600 5599 5600 5602 5604 5606 5609 5612 5616 5620 5624 5629 5634 5642 5649 5656 5662 5669 5676 5681 5685 5689 5690 5697 5702 5701 5699 5699 5698 5697 5697 5695 5693 5691 5690 5690 5690 5689 5689 5689 5688 5689 5689
5586 5586 5587 5588 5591 5594 5597 5599 5603 5608 5611 5616 5621 5627 5635 5644 5650 5657 5663 5670 5676 5681 5683 5685 5690 5692 5691 5692 5690 5689 5689 5688 5685 5682 5682 5681 5681 5681 5681 5681 5680 5680 5681
5571 5571 5572 5574 5577 5580 5584 5587 5590 5595 5599 5604 5609 5615 5622 5628 5637 5645 5652 5658 5665 5671 5676 5679 5683 5685 5684 5684 5682 5680 5680 5679 5677 5674 5674 5673 5672 5673 5673 5672 5672 5672 5673
5556 5556 5557 5560 5563 5566 5571 5574 5578 5582 5586 5591 5597 5603 5609 5615 5623 5631 5640 5647 5653 5659 5665 5671 5676 5677 5676 5676 5675 5673 5671 5671 5671 5670 5667 5666 5664 5664 5664 5664 5664 5664 5664
5541 5541 5542 5545 5548 5552 5557 5562 5565 5570 5573 5578 5584 5590 5597 5603 5610 5618 5627 5635 5641 5648 5655 5662 5668 5670 5670 5669 5670 5669 5666 5663 5662 5663 5663 5662 5660 5659 5657 5655 5655 5655 5655
5526 5525 5526 5529 5533 5539 5544 5546 5550 5557 5563 5567 5572 5579 5585 5591 5597 5603 5613 5620 5628 5636 5645 5653 5660 5665 5667 5668 5668 5666 5662 5659 5656 5657 5659 5657 5657 5655 5653 5649 5646 5646 5646
5513 5512 5512 5515 5519 5523 5526 5530 5534 5542 5551 5557 5563 5568 5576 5584 5587 5595 5601 5607 5616 5625 5633 5643 5653 5660 5664 5667 5665 5661 5660 5659 5657 5653 5654 5649 5649 5647 5643 5637 5637 5637 5637
5502 5501 5502 5504 5507 5512 5513 5515 5520 5527 5539 5548 5553 5559 5564 5572 5579 5585 5594 5600 5609 5618 5626 5634 5644 5652 5658 5661 5661 5660 5657 5652 5647 5646 5647 5643 5641 5639 5635 5629 5627 5628 5628
5496 5494 5494 5495 5498 5502 5502 5504 5507 5517 5528 5538 5546 5552 5557 5563 5568 5573 5582 5592 5601 5610 5617 5625 5633 5640 5647 5651 5653 5651 5647 5645 5641 5639 5641 5640 5636 5633 5629 5624 5619 5618 5619
5491 5489 5489 5490 5492 5495 5496 5497 5499 5510 5522 5532 5538 5546 5548 5554 5558 5561 5571 5582 5591 5601 5610 5618 5623 5630 5637 5642 5645 5647 5648 5645 5641 5635 5635 5636 5633 5631 5624 5621 5616 5613 5612